Location: Waco, TX
(31.5480°N, 97.1670°W)
Time: 00:37:38
(UTC-06:00)

ISS - Pass Details

Date: 15 December 2017
Orbit: 403 x 407 km, 51.6° (Epoch: 12 December)

Event Time Altitude Azimuth Distance (km) Brightness Sun altitude
Rises 10:33:06 0° 212° (SSW) 2,308 0.4 29.1°
Reaches altitude 10° 10:35:13 10° 206° (SSW) 1,452 -0.4 29.3°
Maximum altitude 10:38:21 46° 132° (SE) 554 -1.6 29.6°
Drops below altitude 10° 10:41:30 10° 57° (ENE) 1,461 -1.0 29.9°
Sets 10:43:38 0° 51° (NE) 2,324 -0.1 30.1°
